Tracking 30995 objects as of 5-Jul-2025
HD Live streaming from Space Station
objects crossing your sky now

DELTA 1 DEB

Track DELTA 1 DEB now!
10-day predictions


NORAD ID: 7026
Int'l Code: 1973-086S
Perigee: 1,313.4 km
Apogee: 1,517.1 km
Inclination: 102.1 °
Period: 114.0 minutes
Semi major axis: 7786 km
RCS: 0.0707 m2 (small)
Launch date: November 6, 1973
Source: United States (US)
Launch site: AIR FORCE WESTERN TEST RANGE (AFWTR)

Note: This is SATELLITE DEBRIS
Your satellite tracking list
Your tracking list is empty




NASA's NSSDC Master Catalog

Two Line Element Set (TLE):
1 07026U 73086S   25186.21285432  .00000001  00000-0  25664-3 0  9995
2 07026 102.0871 284.4955 0130838 100.8903 331.2957 12.63602002370807
Source of the keplerian elements: AFSPC